Home   Weather   Township of Fairfield   Past weeks
Flag for USA

Past Weather in Township of Fairfield, New Jersey, USA — Yesterday and Last 2 Weeks

Now
36 °F

Clear.


Feels Like: 30 °F
Forecast: 53 / 31 °F
Wind: 7 mph from Southwest

Location: Dover Air Force Base

Current Time: Dec 5, 2019 at 10:06:02 pm

Latest Report: Dec 5, 2019 at 8:56 pm


Visibility: 10 mi

Pressure: 30.13 "Hg

Humidity: 58%

Dew Point: 22 °F

Location of Township of FairfieldLocation

Past Weather in Township of Fairfield — Graph

°F

Township of Fairfield Temperature Yesterday

Maximum temperature yesterday: 46 °F (at 1:56 pm)
Minimum temperature yesterday: 34 °F (at 2:56 am)
Average temperature yesterday: 40 °F

High & Low Weather Summary for the Past Weeks

 TemperatureHumidityPressure
High66 °F (Nov 26, 12:56 pm)100% (Nov 24, 12:26 am)30.26 "Hg (Nov 24, 12:26 am)
Low31 °F (Nov 23, 6:56 am)35% (Dec 3, 12:56 pm)29.34 "Hg (Nov 24, 5:56 am)
Average44 °F72%29.82 "Hg
* Reported Nov 20 8:56 pm — Dec 5 8:56 pm, Township of Fairfield. Weather by CustomWeather, © 2019

Note: Actual official high and low records may vary slightly from our data, if they occured in-between our weather recording intervals... More about our weather records

Township of Fairfield Weather History for the Previous 24 Hours

Scroll right to see more
 ConditionsComfort  
Time TempWeatherWind HumidityBarometerVisibility
8:56 pm
Thu, Dec 5
36 °FClear.7 mph58%30.13 "Hg10 mi
7:56 pm39 °FClear.9 mph50%30.12 "Hg10 mi
6:56 pm39 °FClear.6 mph50%30.09 "Hg10 mi
5:56 pm41 °FClear.8 mph48%30.06 "Hg10 mi
4:56 pm42 °FPassing clouds.9 mph44%30.03 "Hg10 mi
3:56 pm44 °FPartly sunny.15 mph42%29.99 "Hg10 mi
2:56 pm44 °FPartly sunny.16 mph41%29.95 "Hg10 mi
1:56 pm44 °FOvercast.14 mph42%29.94 "Hg10 mi
12:56 pm43 °FOvercast.18 mph47%29.92 "Hg10 mi
11:56 am43 °FOvercast.18 mph47%29.92 "Hg10 mi
10:56 am43 °FMostly cloudy.16 mph48%29.91 "Hg10 mi
9:56 am43 °FOvercast.15 mph51%29.90 "Hg10 mi
8:56 am43 °FPartly sunny.17 mph55%29.87 "Hg10 mi
7:56 am40 °FBroken clouds.12 mph63%29.84 "Hg10 mi
6:56 am40 °FPassing clouds.14 mph60%29.80 "Hg10 mi
5:56 am40 °FOvercast.12 mph62%29.76 "Hg10 mi
4:56 am40 °FOvercast.14 mph65%29.72 "Hg10 mi
3:56 am40 °FPartly cloudy.12 mph65%29.69 "Hg10 mi
2:56 am39 °FPassing clouds.12 mph67%29.66 "Hg10 mi
1:56 am38 °FPassing clouds.6 mph74%29.64 "Hg10 mi
12:56 am39 °FPassing clouds.7 mph71%29.62 "Hg10 mi
11:56 pm
Wed, Dec 4
41 °FOvercast.7 mph68%29.62 "Hg10 mi
10:56 pm38 °FPassing clouds.6 mph87%29.62 "Hg10 mi
Weather by CustomWeather, © 2019

See weather overview

Advertising